NOAA 16 DEB, 41273

Orbit data source: Space-Track

NOAA 16 DEB, 41273 is space debris in SSO originally from a launch on Thu, 21 Sep 2000 UTC launched from the Air Force Western Test Range (AFWTR). Debris objects in space refer to the collection of defunct objects orbiting the Earth. Examples of debris include non-operational satellites, rocket bodies, and fragments generated from explosions, collisions, or faulty payload assembly.

Loading next visibility...
NOAA 16 DEB details
Identifier
41273, 2000-055FZ
Orbit
SSO
Last TLE update15 hours ago
Origin
Flag of USNOAA (US)
ManufacturerUnknown
MissionSpacecraft
Bus & MotorUnknown
MassUnknown
Launch date (UTC)
2000-09-21 (24 years ago)
Launch vehicleUnknown
Launch site
Air Force Western Test Range (AFWTR)
Object type
Payload
Rocket body
Debris
Shape & HBRUnknown
Radar Cross SectionSmall (<0.1 m²)

Expand to show TLE details & history

TLE from 15 hours ago
0 NOAA 16 DEB
1 41273U 00055FZ  24348.54042140  .00018486  00000-0  41310-2 0  9996
2 41273  98.9471 190.5316 0043426 189.3258 170.7136 14.56206928469565
Epoch: 2024-12-13T12:58Z
Definitive object data (Epoch: 2024-12-13T12:58:12.408Z)
Latitude-0.00004°
Longitude-86.72503°
Altitude738.772 km
Speed7.469 km/s
True Right ascension12h 42m 07s
True Declination0° 00' 00"
Sunlit
Object was in daylight at TLE epoch
Visualization TLE readout
Latitude-24.17253°
Longitude-82.03677°
Altitude740.558 km
Speed7.47 km/s
Apparent Right ascension13h 32m 34s
Apparent Declination-31° 46' 32"
Sunlit
Object is in daylight
Visualization observer readout
Local Sidereal Time02:14:43
Azimuth49.577° ENE
Elevation-78.218°
Doppler factor1
Orbital elements
Apogee altitude733.319 km
Perigee altitude671.821 km
Semi-major axis7,080.707 km
Eccentricity0.0043426
Inclination98.9471°
RAAN190.5316°
Arg. of periapsis189.3258°
True anomaly170.79347°
Mean anomaly170.7136°
Eccentric anomaly170.75358°
Mean motion3.64274 °/min
BSTAR0.004131
Orbital period98.83 mins
Loading maneuver chart data...
Loading historical data...
Loading historical data...
Loading historical data...
Loading historical data...
Loading historical data...
Loading historical data...
Loading historical data...

NOAA 16 DEB Visibility forecast

Observer location: undefined°, undefined

Span
Click to sort rows by Start time (UTC) header in descending order
Start Az.
Max El. time (UTC)
Max El. Az.
Max El.
End time (UTC)
End Az.
4 mins2024-12-14 12:13:57.100Z90.298° ESE2024-12-14 12:15:57.100Z65.683° ENE13.437°2024-12-14 12:17:57.100Z39.39° NE
8 mins2024-12-14 13:49:57.100Z176.25° S2024-12-14 13:52:57.100Z219.583° SW42.175°2024-12-14 13:57:57.100Z340.758° N
6 mins2024-12-15 01:50:57.100Z47.088° ENE2024-12-15 01:53:57.100Z99.495° ESE24.784°2024-12-15 01:56:57.100Z149.016° SSE
6 mins2024-12-15 03:28:57.100Z338.77° N2024-12-15 03:31:57.100Z281.733° WNW24.953°2024-12-15 03:34:57.100Z237.499° WSW
|